Theta_e
311 311 311 311 311 312 313 313 313 314 315 316 317 317 317 317 317 308 302 310 314 319 319 309 307 305 308 305 306 307 295 290 290 292 289 294 293 297 298 295 297 299 298 300 304
310 310 310 310 311 311 312 312 313 314 315 316 317 317 316 315 308 303 314 318 318 319 307 303 301 303 299 300 300 299 293 291 293 292 291 294 293 294 293 294 294 296 300 304 304
309 309 309 309 310 310 311 312 312 314 315 315 317 317 316 312 303 301 319 317 321 320 308 307 305 303 297 298 297 296 291 292 293 294 295 294 293 296 293 292 294 294 298 302 303
309 308 308 309 309 310 311 311 313 315 315 315 317 317 316 307 294 305 319 320 321 312 307 303 302 299 295 293 296 289 294 294 295 296 295 293 294 293 294 293 298 298 300 302 302
309 308 308 308 308 309 310 312 313 315 315 315 317 317 309 301 299 309 317 315 310 307 303 301 298 297 292 294 294 291 292 294 296 295 294 296 293 292 293 296 299 300 302 301 302
309 308 308 307 308 309 311 312 313 314 314 315 316 316 306 295 308 310 309 309 307 306 303 302 299 299 296 294 293 293 294 294 295 294 295 293 292 294 294 297 297 299 299 300 301
309 308 307 307 308 309 311 312 313 313 313 314 314 308 302 297 309 310 309 308 308 305 301 303 303 300 298 293 296 294 290 292 293 293 293 295 291 291 294 297 296 296 297 299 301
309 308 306 306 308 310 311 311 312 312 312 312 313 308 297 308 309 308 308 307 308 307 304 305 305 300 297 297 294 290 290 285 291 293 294 292 286 293 295 294 293 294 295 297 299
309 308 306 306 308 310 310 310 312 312 312 312 308 305 296 310 304 307 307 302 305 306 306 306 304 296 296 290 287 288 282 285 288 293 293 291 287 293 295 294 292 293 295 296 298
309 307 306 306 308 310 309 309 312 310 310 306 305 300 302 298 303 305 307 306 302 302 303 301 298 293 291 288 281 282 282 285 284 289 292 289 287 291 293 293 292 292 294 295 297
309 307 306 306 308 309 307 306 302 302 303 297 298 297 299 303 306 303 305 302 303 300 292 296 290 285 288 289 290 289 286 284 287 291 288 288 288 289 292 292 291 292 293 295 296
310 307 305 306 308 307 306 299 299 303 295 300 299 299 302 303 297 300 304 298 297 290 295 291 284 290 293 292 290 289 285 284 288 290 288 289 287 291 291 291 292 292 293 294 296
310 307 305 305 308 307 302 301 307 305 296 295 299 298 299 301 295 295 300 298 294 291 291 287 289 292 292 289 288 287 285 284 285 289 289 287 284 288 291 292 293 293 294 295 295
309 307 304 305 303 302 300 305 307 305 286 289 291 295 299 301 293 299 299 296 294 289 290 288 291 290 288 287 289 285 289 288 288 285 279 286 275 285 288 288 290 291 292 292 295
309 307 303 305 302 298 302 306 307 302 278 289 290 300 299 295 295 294 300 297 290 290 289 284 288 287 287 288 290 286 290 288 287 284 281 283 276 281 287 284 287 290 291 291 294
309 305 305 302 303 303 306 305 302 287 276 283 291 291 291 294 293 295 295 296 294 290 289 287 292 291 289 291 291 291 289 287 286 284 275 282 277 277 280 283 287 289 290 291 293
308 306 303 302 297 304 305 301 285 281 285 284 285 289 290 288 289 291 290 287 285 281 281 284 285 290 292 288 290 289 284 276 274 273 276 283 277 280 286 288 288 288 289 290 292
307 305 303 302 303 302 299 289 279 285 285 286 288 288 286 288 287 288 286 284 286 285 283 280 276 286 290 288 286 285 283 275 268 272 275 281 276 281 288 290 290 291 290 290 291
306 301 300 301 300 300 295 282 283 286 286 285 287 283 283 285 286 286 284 285 287 286 283 279 279 288 290 291 289 285 281 286 279 272 274 278 281 287 289 287 289 289 289 288 289
298 297 296 301 300 298 287 283 285 287 288 288 283 286 280 282 283 284 283 287 285 288 288 285 277 284 287 289 289 287 288 279 278 267 268 275 276 277 282 284 286 287 287 288 289
294 289 297 301 300 290 281 284 284 287 289 286 285 283 284 282 284 283 284 286 288 288 288 285 283 280 284 283 283 282 281 284 283 279 275 272 274 283 283 285 284 286 288 287 287
292 283 299 299 286 284 282 282 286 285 288 287 287 286 284 284 283 283 283 285 290 289 283 286 285 277 279 285 286 286 284 285 276 276 278 277 274 287 285 286 287 287 288 287 287
285 286 296 295 281 281 280 281 285 284 285 285 284 287 286 283 281 284 285 288 290 288 284 286 280 272 276 280 283 282 284 285 283 281 278 274 275 287 286 286 287 286 287 286 286
286 281 287 289 289 284 281 280 280 287 286 287 286 286 284 282 285 282 283 287 289 289 289 288 282 279 275 278 282 279 282 283 282 275 277 277 277 282 283 283 285 285 286 285 285
286 284 287 280 281 284 284 283 280 280 285 286 283 284 283 280 282 281 284 285 287 289 286 284 274 278 278 279 280 280 280 282 280 280 276 277 278 281 283 283 284 286 287 286 285
285 284 287 285 286 283 284 280 281 283 283 282 283 284 285 282 283 281 283 283 282 285 283 282 275 276 272 277 278 277 279 281 281 280 280 279 278 284 284 284 283 285 286 285 285
292 293 290 286 284 282 281 282 283 285 285 287 285 284 283 285 288 289 289 289 287 283 281 279 274 272 270 274 275 271 276 279 280 281 281 276 281 284 283 284 284 285 286 285 285
Wind_Speed
6 7 8 10 12 13 14 14 15 15 15 15 15 14 14 16 15 14 13 11 14 21 21 12 6 4 2 2 3 1 5 6 3 6 4 7 7 9 4 7 10 8 7 9 12
5 6 8 10 11 13 14 14 15 15 15 14 15 14 12 12 6 15 12 19 19 17 10 11 8 3 2 4 5 4 5 4 4 6 5 6 9 7 6 13 7 11 8 9 10
4 6 7 10 11 13 13 14 15 14 14 13 14 13 12 9 3 9 19 22 21 16 4 6 8 3 6 5 9 7 5 9 5 4 4 5 6 10 10 10 9 14 16 13 8
3 5 7 9 11 12 14 14 14 14 13 13 14 13 11 5 2 9 16 18 19 8 7 4 4 3 4 5 3 6 6 7 5 2 4 3 3 6 8 5 7 8 9 9 12
2 5 7 9 11 12 14 14 14 13 12 13 14 12 6 5 6 11 13 13 10 11 10 7 9 4 6 9 13 11 6 7 3 5 5 8 5 1 8 7 8 8 9 10 11
3 5 7 8 11 12 14 14 14 13 12 14 15 16 4 4 6 11 8 9 13 10 15 15 6 8 9 8 6 7 8 6 6 4 4 4 2 6 7 7 8 9 9 9 11
4 5 7 9 10 12 14 14 12 11 12 12 13 6 12 4 6 7 9 5 7 10 8 11 7 1 6 5 4 9 6 6 7 1 2 6 6 6 6 7 8 9 8 10 13
4 5 7 8 11 12 13 13 11 11 12 11 10 6 4 1 5 10 11 4 7 6 5 6 6 6 6 7 3 4 5 4 4 5 4 1 5 6 7 8 10 10 9 9 10
5 5 7 9 11 12 13 13 11 11 10 11 5 4 5 2 3 8 7 6 5 3 2 1 3 5 2 3 4 5 1 4 4 3 3 5 4 5 7 8 9 9 11 13 13
6 4 7 9 11 13 15 10 8 11 7 4 3 1 2 3 4 6 6 6 3 6 3 4 1 4 4 5 2 3 2 1 1 4 6 4 4 3 5 9 10 10 13 16 18
6 4 6 9 11 12 9 4 2 2 6 5 4 2 4 2 4 5 4 7 2 2 3 5 7 6 6 7 6 6 6 4 4 3 4 6 5 3 5 9 12 14 15 16 18
7 4 4 8 10 11 5 3 3 3 1 2 1 4 3 2 1 10 11 2 2 5 3 6 5 4 1 5 5 6 4 4 1 2 3 8 8 6 3 9 10 14 15 20 22
8 5 3 7 10 6 3 3 2 4 3 3 2 2 2 4 4 7 10 4 5 7 5 5 5 2 1 2 3 6 5 5 4 6 8 7 7 7 5 11 10 13 12 15 21
9 6 3 5 6 2 2 1 3 3 4 3 2 2 1 2 3 4 4 2 3 5 9 7 2 2 3 5 3 1 4 4 6 5 1 1 5 5 7 10 12 14 13 15 19
10 7 3 2 3 1 3 3 4 2 2 4 3 2 1 1 3 3 3 4 3 5 2 1 5 3 3 3 4 3 3 3 4 5 4 6 2 1 7 9 12 12 14 14 19
11 8 6 2 1 2 3 4 2 4 8 2 1 3 4 1 2 2 2 5 3 5 9 5 1 4 3 4 2 1 5 5 3 3 1 5 5 4 4 3 9 10 13 14 17
14 9 2 1 4 2 3 2 4 3 2 1 3 3 5 3 2 2 2 3 1 6 2 2 3 3 3 4 4 4 4 2 4 2 4 6 1 2 5 7 9 12 13 14 15
16 10 5 2 3 2 1 4 3 2 2 1 3 5 3 4 1 2 4 2 3 3 4 6 3 3 0 3 2 2 2 2 4 2 3 4 3 4 6 8 8 10 11 14 18
17 2 3 1 1 0 3 2 6 4 6 7 2 3 3 3 2 1 4 3 4 7 3 4 3 3 3 2 3 3 2 3 1 1 1 4 4 2 7 8 11 13 14 16 16
4 3 2 2 1 2 4 8 2 3 3 3 2 3 5 6 5 3 6 1 5 2 2 3 5 1 1 3 1 2 2 1 1 1 4 1 2 2 7 11 11 13 13 13 14
4 4 2 2 1 4 5 6 2 2 2 3 2 3 4 6 6 4 4 1 5 4 4 3 3 2 1 6 6 3 2 2 2 1 2 3 3 4 6 6 7 7 8 9 11
4 3 4 2 3 2 6 6 2 4 2 0 2 2 3 4 5 5 6 2 6 6 6 1 4 3 1 3 3 3 2 6 3 4 3 1 5 5 4 5 6 7 7 8 8
7 3 3 4 6 5 2 2 1 4 4 3 4 1 3 3 2 2 5 5 4 4 3 3 2 3 1 0 3 4 5 3 3 1 5 3 4 6 5 6 6 6 7 7 8
6 6 2 3 3 8 7 4 6 1 5 4 1 4 3 2 2 3 3 1 3 0 4 4 1 2 4 2 4 5 8 8 6 3 3 6 3 7 6 5 5 6 6 7 7
3 5 7 9 10 6 11 9 9 7 2 5 1 5 6 4 4 3 4 3 2 5 2 1 3 1 3 4 4 1 7 11 14 9 6 1 2 2 7 6 5 5 6 6 7
8 7 4 5 8 16 13 10 13 9 12 6 5 9 5 6 7 8 7 5 5 5 5 1 1 3 3 3 3 4 7 9 12 10 10 8 7 8 8 6 5 6 6 6 6
3 1 6 10 9 13 13 15 19 10 6 8 12 8 6 6 5 2 5 4 6 7 5 6 6 3 5 2 3 8 18 17 12 7 10 9 7 6 6 6 6 6 7 6 5
Wind_Direction
356 360 359 354 352 351 350 351 349 350 350 349 349 347 341 333 317 43 37 336 326 324 314 282 243 331 334 43 348 262 57 75 49 29 39 22 4 356 284 45 50 20 1 337 328
351 353 355 350 348 346 346 347 345 345 347 348 346 346 337 331 298 46 2 347 332 321 334 346 10 346 33 39 350 30 85 112 53 33 20 13 33 346 356 28 6 349 348 339 334
340 346 348 344 344 342 343 343 341 342 345 346 343 340 327 317 260 15 356 341 325 306 312 284 281 336 77 38 6 359 110 129 83 52 13 4 31 45 14 20 1 335 340 343 352
326 336 339 341 339 338 338 339 338 339 341 342 340 334 321 271 68 355 351 337 324 323 306 237 248 50 54 62 66 90 68 92 110 20 14 58 270 77 57 12 324 321 327 340 350
298 316 328 337 333 336 335 335 334 335 336 335 336 333 327 81 36 331 346 348 348 25 14 346 40 61 91 105 76 90 94 91 116 167 11 102 68 13 32 4 334 349 357 2 350
272 302 322 333 331 333 334 330 329 331 333 331 333 318 246 85 317 347 343 6 20 20 34 29 17 46 59 30 31 121 115 119 75 132 20 104 159 60 17 347 357 3 4 9 357
252 293 317 328 330 333 332 326 325 325 327 324 327 323 53 82 321 350 339 30 25 22 54 18 345 45 128 98 69 123 111 114 32 60 62 313 84 56 10 351 4 5 12 10 5
247 286 311 324 326 326 330 322 316 311 315 312 310 289 78 79 323 14 3 26 17 41 63 22 329 69 41 120 89 241 189 176 54 351 167 257 112 57 16 8 7 3 3 7 9
232 275 306 319 322 320 323 318 300 303 294 292 278 294 100 196 12 350 20 356 330 41 13 81 50 105 149 203 155 201 226 80 146 30 293 228 80 68 27 21 3 0 6 2 355
216 264 303 315 319 320 320 295 296 300 247 254 264 217 70 34 6 324 352 327 348 301 166 33 73 98 13 9 337 160 133 15 346 38 316 265 164 106 35 33 4 359 8 1 2
200 241 289 313 317 323 334 295 257 172 38 33 11 62 79 11 263 15 341 315 266 38 66 355 64 72 18 346 356 15 34 358 78 61 327 253 274 191 49 34 2 9 5 9 3
193 215 279 308 312 315 289 331 58 351 76 61 72 82 59 328 255 28 334 273 261 101 199 44 85 69 56 329 10 3 320 44 318 90 289 298 276 281 59 45 12 10 5 11 349
183 206 264 304 307 297 0 47 343 325 264 125 38 23 45 305 48 4 340 308 46 66 62 90 105 133 306 38 11 60 13 11 316 318 249 282 267 188 112 43 5 16 17 11 351
180 184 245 305 291 325 60 39 320 317 62 180 188 86 189 338 95 15 358 347 12 94 97 83 143 142 85 83 354 224 40 325 295 339 356 335 291 96 44 17 9 8 14 0 352
174 171 204 269 327 349 21 300 312 274 308 91 103 332 217 345 120 72 327 304 94 117 241 135 152 162 124 79 311 71 340 308 298 296 18 192 96 38 57 360 4 358 8 358 356
166 166 171 203 110 25 315 301 274 44 254 110 73 152 153 169 65 126 89 46 340 74 40 88 29 356 32 132 79 344 248 219 267 255 320 121 99 310 20 339 3 11 6 356 353
156 151 155 285 125 335 318 264 49 197 353 168 166 180 196 128 76 231 134 121 155 101 84 184 105 124 268 193 176 220 252 306 352 352 234 130 154 135 57 36 20 21 2 357 357
144 123 61 25 78 8 212 64 189 187 206 251 147 159 150 134 47 190 151 185 256 265 128 152 280 184 204 346 21 73 358 159 225 295 318 139 227 145 75 55 31 31 4 8 6
131 112 90 302 10 178 112 162 205 192 149 152 121 151 168 152 138 177 217 208 160 207 151 131 107 115 25 340 313 142 185 18 62 359 328 233 110 106 44 32 29 24 7 12 7
125 102 66 241 314 70 84 227 209 30 123 149 196 184 168 175 168 202 184 118 170 275 352 125 104 349 139 281 159 317 58 102 0 305 281 220 228 188 14 11 17 19 6 10 6
87 96 142 228 38 60 190 227 158 137 39 187 219 145 201 171 169 193 191 30 137 166 274 146 112 144 152 210 171 165 180 214 20 248 260 296 250 64 44 24 26 30 7 15 10
106 132 151 196 116 151 209 189 195 141 85 108 287 81 196 172 171 205 202 16 154 156 168 86 88 148 198 76 32 332 302 182 144 205 252 4 272 108 83 63 55 44 13 26 22
122 108 24 278 186 194 127 201 205 129 165 177 196 157 35 192 198 201 119 327 143 188 146 216 161 87 293 16 179 220 191 246 69 9 224 183 252 182 116 75 56 57 29 26 29
127 128 127 236 311 199 159 184 189 193 149 155 211 100 110 198 355 144 108 175 64 35 28 21 335 206 209 123 122 191 186 186 183 162 220 233 173 206 131 95 53 52 46 41 37
148 172 169 176 214 207 172 172 174 171 211 154 250 183 180 166 102 215 121 117 187 131 104 76 187 16 88 20 352 308 177 187 210 224 180 178 116 65 130 117 104 79 61 55 40
142 154 173 151 143 183 188 192 196 172 158 189 200 192 171 150 167 195 152 158 194 157 160 142 196 66 303 327 288 272 246 209 218 239 260 270 267 120 124 149 113 87 74 66 50
153 143 126 152 150 177 204 195 199 157 222 165 179 144 187 189 124 191 127 187 148 156 169 146 133 126 254 339 304 289 218 206 203 198 205 227 216 144 150 149 135 120 98 85 81